Location: Mount Cross
(36.6390°N, 79.4878°W)
Time: 19:25:37
(UTC+00:00)

Courier 1B Rocket - Pass Details

Date: 27 March 2023
Orbit: 920 x 1202 km, 28.2° (Epoch: 08 June)

Event Time Altitude Azimuth Distance (km) Brightness Sun altitude
Rises 03:47:00 0° 262° (W) 3,741 8.3 -44.9°
Enters shadow 03:48:11 - 259° (W) 3,337 8.0 -45.0°
Reaches altitude 10° 03:49:57 10° 254° (WSW) 2,747 - -45.2°
Maximum altitude 03:55:53 36° 190° (S) 1,463 - -45.9°
Drops below altitude 10° 04:01:33 10° 125° (SE) 2,621 - -46.5°
Sets 04:04:19 0° 117° (ESE) 3,550 - -46.8°
